Weather reports worldwide

Advertisment
Greifswalder Oie, Germany (10097): temperature & dewpoint: 14.06.2019 06:00:00 - 20.06.2019 06:00:00 (CEST)Greifswalder Oie, Germany (10097): temperature 5cm & temperature -5cm: 14.06.2019 06:00:00 - 20.06.2019 06:00:00 (CEST)Greifswalder Oie, Germany (10097): temperature -20cm & temperature -100cm: 14.06.2019 06:00:00 - 20.06.2019 06:00:00 (CEST)Greifswalder Oie, Germany (10097): water temperature: 14.06.2019 06:00:00 - 20.06.2019 06:00:00 (CEST)Greifswalder Oie, Germany (10097): wind speed & gusts: 14.06.2019 06:00:00 - 20.06.2019 06:00:00 (CEST)Greifswalder Oie, Germany (10097): wind direction: 14.06.2019 06:00:00 - 20.06.2019 06:00:00 (CEST)Greifswalder Oie, Germany (10097): reduced air pressure: 14.06.2019 06:00:00 - 20.06.2019 06:00:00 (CEST)Greifswalder Oie, Germany (10097): visibility: 14.06.2019 06:00:00 - 20.06.2019 06:00:00 (CEST)Greifswalder Oie, Germany (10097): sunshine duration: 14.06.2019 06:00:00 - 20.06.2019 06:00:00 (CEST)Greifswalder Oie, Germany (10097): precipitation: 14.06.2019 06:00:00 - 20.06.2019 06:00:00 (CEST)
Date & Time tt [°C] td [°C] tt 5cm [°C] tt -5cm [°C] tt -20cm [°C] tt -100cm [°C] tw [°C] ff [km/h] ff [kn] fx [km/h] fx [kn] dd ppp [hPa] vv [km] sd [min] rr [mm]
20.06.2019 06:00:00 20,1 16,5 19,5 19,7 21,2 16,4 19,8 16 9 44 24 W 1006,7 24 0 0,0
20.06.2019 05:00:00 21,1 16,5 19,9 19,8 21,4 16,4 20,0 29 16 39 21 W 1006,8 29 0 0,0
20.06.2019 04:00:00 20,5 18,2 19,1 19,8 21,7 16,4 20,1 12 7 22 12 WNW 1006,6 15 0 0,0
20.06.2019 03:00:00 20,8 18,3 19,0 20,2 22,0 16,4 20,3 13 7 17 9 SW 1006,1 16 0 0,0
20.06.2019 02:00:00 21,6 17,9 19,8 20,6 22,3 16,4 20,3 11 6 21 12 S 1006,2 19 0 0,0
20.06.2019 01:00:00 21,3 18,6 19,8 20,9 22,7 16,4 19,8 14 7 23 12 SE 1006,3 19 0 0,0
20.06.2019 00:00:00 21,2 18,4 19,8 21,3 23,1 16,3 19,8 16 9 24 13 ESE 1006,6 19 0 0,0
19.06.2019 23:00:00 20,8 18,1 19,6 21,9 23,6 16,3 19,7 16 9 23 13 ESE 1007,1 21 0 0,0
19.06.2019 22:00:00 20,5 17,7 19,5 22,7 24,1 16,3 19,5 16 9 28 15 E 1007,4 22 0 0,0
19.06.2019 21:00:00 20,7 17,3 20,2 24,3 24,6 16,3 20,0 21 11 31 17 E 1007,2 28 57 0,0
19.06.2019 20:00:00 21,1 17,4 22,2 26,6 25,0 16,3 20,0 21 11 29 16 E 1007,5 18 60 0,0
19.06.2019 19:00:00 21,6 17,7 24,3 28,9 25,1 16,3 20,3 18 10 26 14 E 1007,7 20 60 0,0
19.06.2019 18:00:00 22,2 18,1 28,1 32,6 24,9 16,3 20,9 19 10 25 13 E 1008,1 11 60 0,0
19.06.2019 17:00:00 22,7 18,5 30,7 34,5 24,4 16,3 20,2 17 9 27 15 E 1008,7 11 60 0,0
19.06.2019 16:00:00 23,2 18,7 30,9 33,7 23,8 16,3 20,6 19 10 27 14 E 1009,3 12 60 0,0
19.06.2019 15:00:00 22,6 18,8 28,9 31,6 23,1 16,3 20,4 18 10 27 15 E 1010,0 13 54 0,0
19.06.2019 14:00:00 22,8 18,8 30,5 31,9 22,4 16,2 20,3 17 9 25 13 E 1010,5 9 60 0,0
19.06.2019 13:00:00 22,2 18,1 29,6 28,7 21,6 16,2 20,1 17 9 25 13 E 1010,8 9 60 0,0
19.06.2019 12:00:00 21,7 17,5 27,9 26,3 20,9 16,2 19,9 18 10 24 13 E 1011,2 10 60 0,0
19.06.2019 11:00:00 21,6 17,4 27,4 24,7 20,4 16,2 20,5 12 7 22 12 ESE 1011,7 14 58 0,0
19.06.2019 10:00:00 22,0 17,3 25,7 22,9 19,9 16,2 19,7 14 8 23 12 ESE 1011,9 12 60 0,0
19.06.2019 09:00:00 21,0 16,8 23,0 21,1 19,7 16,2 19,3 14 8 24 13 ESE 1012,2 14 60 0,0
19.06.2019 08:00:00 20,8 17,0 21,1 19,8 19,7 16,2 19,0 12 6 23 13 SE 1012,3 15 58 0,0
19.06.2019 07:00:00 20,2 16,6 19,9 19,0 19,8 16,2 18,9 14 8 26 14 SE 1012,6 19 58 0,0
19.06.2019 06:00:00 20,1 16,3 18,6 18,6 20,0 16,1 18,8 17 9 26 14 SE 1012,7 18 26 0,0
19.06.2019 05:00:00 19,8 16,3 17,5 18,4 20,2 16,1 19,0 16 8 22 12 SE 1012,9 32 0 0,0
19.06.2019 04:00:00 19,9 16,3 17,2 18,6 20,4 16,1 19,2 11 6 29 16 SE 1013,1 35 0 0,0
19.06.2019 03:00:00 20,6 15,3 18,2 18,9 20,7 16,1 19,5 21 11 29 16 SE 1013,2 45 0 0,0
19.06.2019 02:00:00 20,7 15,9 18,1 19,1 21,0 16,1 19,3 16 9 26 14 SE 1013,7 42 0 0,0
19.06.2019 01:00:00 20,2 16,7 17,8 19,5 21,3 16,1 18,9 14 8 27 15 ESE 1014,2 33 0 0,0
19.06.2019 00:00:00 20,3 16,6 18,4 19,9 21,6 16,1 19,1 22 12 29 15 ESE 1014,4 30 0 0,0
18.06.2019 23:00:00 20,0 16,9 18,1 20,4 22,0 16,1 19,0 18 10 29 15 ESE 1014,5 29 0 0,0
18.06.2019 22:00:00 19,9 16,9 18,5 21,2 22,4 16,1 19,3 19 10 33 18 E 1014,8 31 11 0,0
18.06.2019 21:00:00 20,6 16,4 19,7 22,4 22,8 16,1 19,6 23 12 32 18 E 1014,8 63 60 0,0
18.06.2019 20:00:00 20,8 16,2 20,8 24,0 23,1 16,1 19,9 23 12 32 17 E 1014,9 20 58 0,0
18.06.2019 19:00:00 21,3 16,4 23,1 25,9 23,3 16,1 20,0 23 13 31 17 E 1015,4 12 59 0,0
18.06.2019 18:00:00 21,7 16,8 25,2 29,0 23,2 16,0 20,5 22 12 31 17 E 1015,7 12 60 0,0
18.06.2019 17:00:00 22,0 17,5 27,3 30,2 22,9 16,0 20,7 21 11 28 15 E 1016,2 8 60 0,0
18.06.2019 16:00:00 22,3 17,4 27,9 30,6 22,4 16,0 20,8 19 11 27 15 E 1016,8 7 60 0,0
18.06.2019 15:00:00 22,5 17,6 29,1 30,6 21,7 16,0 20,7 15 8 22 12 E 1017,4 12 60 0,0
18.06.2019 14:00:00 22,8 17,9 29,3 29,3 21,0 16,0 20,8 13 7 21 11 E 1017,9 14 60 0,0
18.06.2019 13:00:00 21,6 17,3 27,4 27,6 20,3 16,0 21,2 16 8 26 14 ESE 1018,4 11 60 0,0
18.06.2019 12:00:00 20,9 16,7 26,7 25,3 19,6 16,0 21,3 13 7 23 12 ESE 1018,7 9 60 0,0
18.06.2019 11:00:00 20,3 16,4 24,7 23,4 19,1 16,0 20,8 17 9 24 13 ESE 1019,0 11 60 0,0
18.06.2019 10:00:00 19,9 15,6 23,3 21,2 18,7 16,0 20,1 16 9 24 13 ESE 1019,4 16 60 0,0
18.06.2019 09:00:00 19,5 15,0 21,4 19,5 18,5 16,0 19,5 17 9 25 13 ESE 1019,6 15 60 0,0
18.06.2019 08:00:00 19,3 14,6 20,0 18,3 18,4 16,0 19,4 15 8 24 13 ESE 1019,8 19 60 0,0
18.06.2019 07:00:00 18,5 14,0 18,1 17,2 18,5 16,0 19,5 17 9 26 14 ESE 1019,9 22 60 0,0
18.06.2019 06:00:00 17,9 14,0 15,9 16,5 18,7 15,9 19,6 15 8 21 12 ESE 1020,2 30 49 0,0
18.06.2019 05:00:00 17,5 13,6 14,7 16,4 19,0 15,9 19,6 12 7 18 10 ESE 1020,4 55 0 0,0
18.06.2019 04:00:00 17,6 13,9 14,4 16,5 19,2 15,9 19,7 11 6 18 10 ESE 1020,5 63 0 0,0
18.06.2019 03:00:00 17,9 13,5 14,5 16,8 19,5 15,9 19,8 12 7 20 11 ESE 1020,8 70 0 0,0
18.06.2019 02:00:00 17,7 13,8 14,3 17,1 19,9 15,9 19,9 10 5 16 9 ESE 1021,1 57 0 0,0
18.06.2019 01:00:00 17,5 13,3 14,1 17,5 20,3 15,9 19,9 9 5 16 9 ESE 1021,2 57 0 0,0
18.06.2019 00:00:00 17,6 14,0 14,6 17,9 20,7 15,9 20,1 10 5 16 8 SE 1021,2 63 0 0,0
17.06.2019 23:00:00 17,6 12,8 14,3 18,5 21,2 15,9 20,2 11 6 16 9 ESE 1021,1 70 0 0,0
17.06.2019 22:00:00 17,9 13,2 15,3 19,5 21,7 15,9 20,3 13 7 19 10 ESE 1021,4 70 35 0,0
17.06.2019 21:00:00 17,9 12,4 16,0 21,1 22,1 15,9 20,1 10 5 16 9 E 1021,2 70 60 0,0
17.06.2019 20:00:00 18,7 12,5 19,7 23,5 22,5 15,9 20,1 12 7 17 9 E 1021,5 25 60 0,0
17.06.2019 19:00:00 19,4 13,0 23,1 25,3 22,7 15,9 20,3 10 5 16 9 E 1021,6 31 60 0,0
17.06.2019 18:00:00 19,4 12,5 24,6 28,6 22,6 15,9 20,4 13 7 19 10 E 1021,8 15 60 0,0
17.06.2019 17:00:00 20,4 12,7 27,3 29,9 22,3 15,9 20,5 11 6 20 11 NE 1022,3 20 60 0,0
17.06.2019 16:00:00 20,1 13,6 27,9 30,2 21,8 15,9 20,4 11 6 19 11 NE 1022,5 21 60 0,0
17.06.2019 15:00:00 19,7 12,9 27,6 29,7 21,1 15,9 20,1 16 8 22 12 NNE 1022,5 20 60 0,0
17.06.2019 14:00:00 19,9 14,2 27,8 28,9 20,4 15,9 19,9 14 8 20 11 NNE 1022,6 18 60 0,0
17.06.2019 13:00:00 21,1 16,2 29,5 27,4 19,5 15,9 19,7 10 6 17 9 N 1022,6 16 59 0,0
17.06.2019 12:00:00 19,3 15,0 25,7 24,5 18,8 15,9 19,4 12 6 15 8 W 1022,4 16 60 0,0
17.06.2019 11:00:00 20,1 15,8 25,2 22,7 18,2 15,9 19,0 12 7 19 10 WSW 1022,6 18 60 0,0
17.06.2019 10:00:00 18,7 15,1 22,1 20,2 17,7 15,9 18,6 17 9 25 13 W 1022,4 9 60 0,0
17.06.2019 09:00:00 18,1 14,1 20,3 18,5 17,5 15,9 18,4 23 12 28 15 WSW 1022,1 12 60 0,0
17.06.2019 08:00:00 17,7 13,9 18,6 17,2 17,4 15,9 18,3 22 12 28 15 W 1021,9 19 45 0,0
17.06.2019 07:00:00 17,4 13,3 16,7 16,3 17,5 15,9 18,3 20 11 24 13 SSW 1021,7 30 60 0,0
17.06.2019 06:00:00 17,3 13,0 14,6 15,5 17,6 15,9 18,2 13 7 18 10 SW 1021,3 44 46 0,0
17.06.2019 05:00:00 17,2 13,5 13,9 15,3 17,8 15,9 18,2 14 8 17 9 SW 1021,4 45 0 0,0
17.06.2019 04:00:00 16,1 13,5 12,5 15,3 18,1 15,9 18,1 10 5 19 10 SW 1021,3 37 0 0,0
17.06.2019 03:00:00 17,1 14,3 14,5 15,7 18,3 15,9 18,2 16 9 20 11 WSW 1021,5 39 0 0,0
17.06.2019 02:00:00 17,2 13,4 14,0 16,0 18,6 15,9 18,1 10 6 16 9 WSW 1021,4 47 0 0,0
17.06.2019 01:00:00 16,9 13,3 14,9 16,3 18,9 15,9 18,0 14 8 19 11 W 1021,1 57 0 0,0
17.06.2019 00:00:00 17,5 14,0 15,4 16,7 19,2 15,9 18,0 16 8 20 11 WNW 1021,0 53 0 0,0
16.06.2019 23:00:00 16,8 13,9 15,5 17,2 19,5 15,9 18,1 18 10 23 12 WNW 1020,9 53 0 0,0
16.06.2019 22:00:00 17,6 13,7 16,0 17,8 19,8 15,9 18,1 17 9 23 13 WNW 1020,7 53 34 0,0
16.06.2019 21:00:00 18,3 14,7 16,8 19,0 20,1 15,9 17,8 16 9 26 14 WNW 1020,0 53 60 0,0
16.06.2019 20:00:00 19,3 14,1 20,0 20,6 20,3 15,9 17,8 21 11 29 16 WNW 1019,9 26 18 0,0
16.06.2019 19:00:00 18,5 13,6 19,0 20,8 20,5 15,9 17,9 25 13 35 19 WNW 1019,9 47 20 0,0
16.06.2019 18:00:00 19,2 12,2 20,2 20,9 20,7 15,9 17,9 26 14 37 20 WNW 1019,7 49 2 0,0
16.06.2019 17:00:00 19,5 11,4 21,9 23,7 20,6 15,9 18,1 31 17 38 20 WNW 1020,0 13 58 0,0
16.06.2019 16:00:00 20,3 10,7 25,0 25,2 20,3 15,9 17,4 27 15 33 18 WNW 1019,8 11 60 0,0
16.06.2019 15:00:00 19,4 11,6 24,8 26,2 19,7 15,9 17,0 25 13 31 17 WNW 1019,6 22 60 0,0
16.06.2019 14:00:00 21,2 14,3 26,0 26,0 19,0 15,9 16,9 21 12 31 17 NNW 1019,5 24 60 0,0
16.06.2019 13:00:00 20,1 12,9 23,5 23,3 18,4 15,9 16,5 29 16 36 20 WNW 1018,8 21 60 0,0
16.06.2019 12:00:00 18,8 12,9 21,8 21,1 17,9 15,9 16,4 32 17 43 23 WNW 1018,4 17 60 0,0
16.06.2019 11:00:00 18,1 13,4 20,3 19,6 17,6 15,9 16,2 35 19 47 26 WNW 1017,8 13 59 0,0
16.06.2019 10:00:00 16,8 13,2 17,6 17,6 17,4 15,9 16,1 40 21 50 27 WNW 1017,1 19 16 0,0
16.06.2019 09:00:00 16,2 12,5 16,7 16,6 17,5 15,9 15,9 42 23 58 31 WNW 1016,6 21 2 0,0
16.06.2019 08:00:00 15,7 13,0 15,8 16,1 17,6 15,9 16,1 43 23 56 30 WNW 1016,1 34 0 0,0
16.06.2019 07:00:00 15,7 13,3 15,7 16,2 17,8 15,8 16,2 46 25 56 30 NW 1015,5 51 0 0,0
16.06.2019 06:00:00 15,9 14,0 15,7 16,2 17,9 15,8 16,2 42 23 51 28 NW 1014,9 40 0 0,0
16.06.2019 05:00:00 16,2 14,6 16,1 16,4 18,1 15,8 16,4 41 22 53 29 WNW 1014,4 18 0 0,0
16.06.2019 04:00:00 16,9 15,2 16,7 16,7 18,2 15,8 16,3 42 23 55 30 WNW 1013,6 17 0 0,0
16.06.2019 03:00:00 17,0 15,2 16,3 16,8 18,4 15,8 16,4 44 24 53 29 WNW 1012,9 16 0 0,0
16.06.2019 02:00:00 17,8 15,5 17,5 17,3 18,6 15,8 16,9 41 22 50 27 WNW 1012,8 28 0 0,0
16.06.2019 01:00:00 17,7 16,2 17,2 17,5 18,7 15,8 17,4 29 16 37 20 W 1012,5 10 0 0,0
16.06.2019 00:00:00 17,5 16,2 16,9 17,5 18,9 15,8 16,8 17 9 21 11 W 1012,3 11 0 0,0
15.06.2019 23:00:00 17,6 16,2 15,9 17,8 19,1 15,8 16,7 4 2 25 14 S 1011,6 11 0 0,0
15.06.2019 22:00:00 18,0 16,2 17,8 18,3 19,2 15,8 16,8 15 8 34 18 NE 1011,1 15 0 0,0
15.06.2019 21:00:00 17,5 15,7 17,6 18,8 19,4 15,8 17,0 20 11 36 19 N 1010,5 14 18 0,0
15.06.2019 20:00:00 17,7 16,1 18,0 19,0 19,5 15,8 17,0 18 10 34 18 NW 1009,7 14 0 0,0
15.06.2019 19:00:00 17,9 15,7 17,5 18,9 19,7 15,8 17,4 15 8 39 21 NE 1008,4 23 0 0,0
15.06.2019 18:00:00 18,1 15,5 18,5 20,1 19,8 15,8 17,9 26 14 42 23 NE 1009,2 26 11 0,0
15.06.2019 17:00:00 18,5 15,3 20,5 22,2 19,6 15,8 17,8 24 13 45 24 NNE 1009,0 23 30 0,0
15.06.2019 16:00:00 19,8 15,7 20,6 20,8 19,6 15,8 17,7 25 13 41 22 E 1009,3 17 2 0,0
15.06.2019 15:00:00 19,7 15,4 20,1 20,6 19,6 15,8 18,0 26 14 41 22 ENE 1009,7 34 2 0,0
15.06.2019 14:00:00 19,8 15,2 20,7 20,7 19,6 15,8 18,2 30 16 50 27 E 1010,0 26 7 0,0
15.06.2019 13:00:00 20,0 14,7 22,4 21,0 19,5 15,8 18,3 35 19 46 25 E 1010,1 17 1 0,0
15.06.2019 12:00:00 19,7 13,8 21,0 21,9 19,2 15,8 18,4 32 17 47 25 E 1011,6 19 45 0,0
15.06.2019 11:00:00 20,6 15,8 24,4 21,4 18,9 15,7 18,4 24 13 44 24 E 1011,9 29 21 0,0
15.06.2019 10:00:00 18,9 15,2 19,2 20,0 18,8 15,7 18,3 29 16 42 23 E 1012,7 29 31 0,0
15.06.2019 09:00:00 18,9 15,5 19,1 19,0 18,7 15,7 18,2 30 16 44 24 E 1013,0 22 7 0,0
15.06.2019 08:00:00 19,4 15,8 20,4 19,1 18,7 15,7 18,2 25 14 42 23 ESE 1013,6 21 6 0,0
15.06.2019 07:00:00 19,0 15,6 18,6 18,1 18,7 15,7 18,2 25 13 37 20 ESE 1014,3 30 1 0,0
15.06.2019 06:00:00 19,1 16,3 18,1 17,8 18,8 15,7 18,2 22 12 34 18 ESE 1014,5 26 0 0,0
15.06.2019 05:00:00 19,3 16,0 18,1 17,7 18,9 15,7 18,2 24 13 32 17 ESE 1015,1 27 0 0,0
15.06.2019 04:00:00 19,2 16,1 17,5 17,8 19,1 15,7 18,3 18 10 31 17 E 1015,6 30 0 0,0
15.06.2019 03:00:00 19,4 15,4 18,1 17,6 19,3 15,7 18,3 23 12 35 19 ESE 1016,1 50 0 0,0
15.06.2019 02:00:00 19,3 15,1 17,9 17,6 19,5 15,7 18,3 26 14 37 20 ESE 1016,5 62 0 0,0
15.06.2019 01:00:00 19,1 15,0 17,4 17,5 19,8 15,6 18,3 23 12 36 20 ESE 1016,9 60 0 0,0
15.06.2019 00:00:00 19,3 14,8 17,2 17,6 20,2 15,6 18,2 25 14 39 21 ESE 1017,2 70 0 0,0
14.06.2019 23:00:00 19,4 14,7 17,3 17,8 20,7 15,6 18,3 27 14 45 24 E 1017,5 70 0 0,0
14.06.2019 22:00:00 19,0 14,1 17,3 18,3 21,2 15,6 18,4 29 16 45 24 E 1017,5 70 5 0,0
14.06.2019 21:00:00 19,5 13,7 18,4 19,5 21,8 15,6 18,7 32 17 45 25 E 1017,4 62 48 0,0
14.06.2019 20:00:00 19,8 13,7 19,9 21,2 22,3 15,6 18,8 33 18 45 25 E 1017,8 24 55 0,0
14.06.2019 19:00:00 20,3 13,7 22,0 23,2 22,7 15,6 18,9 32 17 44 24 E 1017,9 8 60 0,0
14.06.2019 18:00:00 20,6 14,3 24,2 26,2 22,8 15,6 19,0 26 14 37 20 E 1018,5 10 60 0,0
14.06.2019 17:00:00 21,2 14,5 26,4 28,1 22,7 15,6 19,5 23 12 33 18 E 1019,0 11 60 0,0
14.06.2019 16:00:00 21,7 17,1 28,8 29,5 22,3 15,6 19,4 16 9 24 13 E 1019,3 12 60 0,0
14.06.2019 15:00:00 21,1 16,9 28,9 29,7 21,7 15,6 18,7 16 9 23 12 E 1019,5 11 60 0,0
14.06.2019 14:00:00 21,3 17,4 29,3 29,1 21,0 15,6 18,9 16 8 21 11 E 1019,6 11 60 0,0
14.06.2019 13:00:00 20,5 16,4 28,1 28,0 20,2 15,6 18,6 14 7 21 11 E 1019,7 14 60 0,0
14.06.2019 12:00:00 20,4 16,0 27,0 25,8 19,3 15,6 19,1 14 8 22 12 ESE 1019,9 23 60 0,0
14.06.2019 11:00:00 21,2 16,1 26,5 24,2 18,5 15,6 19,2 7 4 15 8 SE 1019,7 28 60 0,0
14.06.2019 10:00:00 19,9 15,1 22,4 21,5 17,9 15,6 18,4 11 6 16 8 SE 1019,7 30 60 0,0
14.06.2019 09:00:00 19,7 14,9 20,3 19,2 17,5 15,6 18,0 6 4 19 11 SSE 1019,3 41 60 0,0
14.06.2019 08:00:00 18,6 14,2 18,0 17,5 17,3 15,6 17,9 8 4 22 12 SSE 1018,8 44 60 0,0
14.06.2019 07:00:00 18,2 14,3 16,6 16,1 17,4 15,6 17,6 9 5 19 10 SSE 1018,2 43 60 0,0
14.06.2019 06:00:00 17,3 13,2 14,5 15,1 17,7 15,6 17,7 10 5 18 10 SSE 1017,9 47 48 0,0

tt = temperature
td = dewpoint
tt 5cm = temperature 5cm
tt -5cm = temperature -5cm
tt -20cm = temperature -20cm
tt -100cm = temperature -100cm
tw = water temperature
ff = wind speed
fx = gusts
dd = wind direction
ppp = reduced air pressure
vv = visibility
sd = sunshine duration
rr = precipitation

Next stations